Location: Evergreen Manor
(41.4083°N, 81.4939°W)
Time: 04:56:28
(UTC+00:00)

CZ-4C R/B - Pass Details

Date: 11 December 2019
Orbit: 646 x 1356 km, 63.4° (Epoch: 25 January)

Event Time Altitude Azimuth Distance (km) Brightness Sun altitude
Rises 00:18:32 0° 189° (S) 3,002 5.3 -25.8°
Reaches altitude 10° 00:20:51 10° 181° (S) 2,142 4.4 -26.3°
Enters shadow 00:22:13 18° 171° (S) 1,687 3.7 -26.5°
